GW0571 Weather Reports


time (UTC)temp
C
wind
direction
speed
KPH
gust
KPH
rain 1hr
cm
rain 24hr
cm
rain mn
cm
humidity
%
barometer
mb
20260506211743 7 290 0.0 8.0 0.05 0.91 0.91 96 1009.2
20260506211239 7 329 4.8 11.3 0.05 0.91 0.91 96 1008.9
20260506210736 7 8 3.2 14.5 0.00 0.89 0.89 96 1009.0
20260506210233 7 326 0.0 4.8 0.05 0.89 0.89 96 1008.9
20260506205730 7 339 4.8 6.4 0.05 0.89 0.89 96 1008.7
20260506205226 7 320 3.2 6.4 0.00 0.89 0.89 96 1008.3
20260506204723 7 344 9.7 11.3 0.05 0.89 0.89 96 1008.7
20260506204220 7 301 4.8 11.3 0.00 0.89 0.89 96 1008.4
20260506203719 7 313 3.2 11.3 0.05 0.89 0.89 96 1008.3
20260506203215 7 78 0.0 9.7 0.05 0.89 0.89 96 1008.2
20260506202713 7 268 3.2 8.0 0.05 0.86 0.86 96 1008.2
20260506202209 7 329 3.2 8.0 0.05 0.86 0.86 96 1008.1
20260506201706 7 13 0.0 6.4 0.05 0.86 0.86 96 1007.8
20260506201203 7 221 4.8 8.0 0.05 0.86 0.86 96 1008.0
20260506200659 7 323 1.6 11.3 0.05 0.86 0.86 96 1007.8
20260506200156 7 284 3.2 8.0 0.00 0.86 0.86 96 1007.9
20260506195653 7 273 3.2 8.0 0.00 0.86 0.86 96 1007.9
20260506195149 7 306 3.2 6.4 0.00 0.86 0.86 96 1007.5
20260506194647 7 333 6.4 8.0 0.05 0.86 0.86 96 1007.9
20260506194143 8 334 1.6 6.4 0.05 0.86 0.86 96 1008.0
20260506193641 8 269 0.0 22.5 0.00 0.84 0.84 96 1007.8
20260506193138 8 8 3.2 4.8 0.05 0.84 0.84 96 1007.9
20260506192634 8 322 3.2 6.4 0.00 0.84 0.84 96 1007.6
20260506192130 7 359 0.0 8.0 0.05 0.84 0.84 96 1007.7
20260506191627 7 292 4.8 8.0 0.05 0.84 0.84 96 1007.6
20260506191123 7 311 3.2 11.3 0.00 0.81 0.81 96 1007.6
20260506190621 8 320 0.0 4.8 0.00 0.81 0.81 96 1007.7
20260506190118 8 299 0.0 4.8 0.05 0.81 0.81 96 1007.4
20260506185615 8 349 1.6 4.8 0.05 0.81 0.81 96 1007.3
20260506185111 8 240 0.0 4.8 0.00 0.81 0.81 96 1007.3
20260506184609 8 300 1.6 4.8 0.05 0.81 0.81 96 1007.2
20260506184106 7 21 3.2 4.8 0.05 0.81 0.81 96 1007.1
20260506183602 8 331 4.8 6.4 0.05 0.81 0.81 96 1007.3
20260506183058 8 351 3.2 8.0 0.05 0.81 0.81 96 1007.2
20260506182556 8 256 1.6 6.4 0.05 0.79 0.79 96 1007.0
20260506182053 8 356 3.2 6.4 0.05 0.79 0.79 96 1007.1
20260506181551 8 300 3.2 9.7 0.05 0.79 0.79 96 1007.2
20260506181047 8 322 3.2 6.4 0.05 0.79 0.79 96 1006.9
20260506180544 8 231 0.0 6.4 0.05 0.76 0.76 96 1007.1
20260506180040 8 346 1.6 6.4 0.05 0.76 0.76 96 1006.7
20260506175537 8 269 0.0 8.0 0.05 0.76 0.76 96 1006.9
20260506175033 8 336 0.0 11.3 0.05 0.76 0.76 96 1006.7
20260506174532 8 331 3.2 8.0 0.05 0.74 0.74 96 1006.4
20260506174028 8 312 3.2 8.0 0.05 0.74 0.74 96 1006.4
20260506173526 9 347 3.2 8.0 0.05 0.74 0.74 96 1006.4
20260506173022 9 254 6.4 14.5 0.05 0.74 0.74 96 1006.4
20260506172520 9 305 3.2 8.0 0.13 0.74 0.74 96 1006.5
20260506172016 9 320 4.8 6.4 0.05 0.71 0.71 96 1006.4
20260506171513 10 281 3.2 8.0 0.05 0.71 0.71 96 1006.4
20260506171011 11 347 8.0 11.3 0.05 0.71 0.71 96 1006.2
20260506170508 11 307 3.2 4.8 0.05 0.71 0.71 96 1006.3
20260506170000 11 251 8.0 16.1 0.05 0.69 0.69 96 1006.2
20260506165458 12 251 4.8 14.5 0.13 0.69 0.69 96 1006.2
20260506164954 12 252 1.6 9.7 0.05 0.69 0.69 96 1006.3
20260506164450 12 238 4.8 8.0 0.05 0.66 0.66 96 1006.2
20260506163948 12 163 8.0 14.5 0.00 0.66 0.66 96 1006.2
20260506163443 12 180 3.2 8.0 0.05 0.66 0.66 96 1006.0
20260506162938 12 127 1.6 11.3 0.05 0.66 0.66 96 1006.1
20260506162436 12 256 3.2 12.9 0.05 0.66 0.66 96 1006.2
20260506161928 12 205 3.2 11.3 0.13 0.66 0.66 96 1006.0
20260506161426 12 194 4.8 12.9 0.13 0.64 0.64 96 1005.9
20260506160923 12 218 6.4 9.7 0.13 0.64 0.64 96 1005.9
20260506160420 12 143 6.4 11.3 0.05 0.61 0.61 96 1006.1
20260506155917 12 276 3.2 8.0 0.05 0.61 0.61 96 1006.2
20260506155414 12 135 4.8 8.0 0.13 0.61 0.61 96 1006.1
20260506153536 12 144 0.0 11.3 0.05 0.56 0.56 96 1006.3
20260506153034 12 141 6.4 8.0 0.13 0.56 0.56 96 1006.3
20260506152531 12 115 3.2 8.0 0.13 0.56 0.56 96 1006.3
20260506152029 12 123 4.8 8.0 0.13 0.53 0.53 96 1006.2
20260506151526 12 125 3.2 11.3 0.13 0.53 0.53 96 1006.3
20260506151024 12 235 4.8 9.7 0.05 0.51 0.51 96 1006.4
20260506150520 12 219 3.2 6.4 0.13 0.51 0.51 96 1006.3
20260506150017 12 149 3.2 8.0 0.05 0.51 0.51 96 1006.1
20260506145513 12 145 6.4 9.7 0.13 0.48 0.48 96 1006.2
20260506145011 12 186 6.4 9.7 0.05 0.48 0.48 96 1006.2
20260506144507 12 143 9.7 16.1 0.05 0.46 0.46 96 1006.0
20260506144005 12 206 3.2 8.0 0.13 0.46 0.46 96 1005.9
20260506143502 12 175 3.2 8.0 0.13 0.46 0.46 96 1006.0
20260506143001 13 197 3.2 8.0 0.13 0.46 0.46 96 1006.0
20260506142458 13 106 6.4 8.0 0.13 0.43 0.43 96 1006.2
20260506141956 12 188 3.2 4.8 0.18 0.43 0.43 96 1006.3
20260506141453 12 179 1.6 11.3 0.13 0.41 0.41 96 1006.3
20260506140952 12 180 3.2 12.9 0.13 0.41 0.41 96 1006.1
20260506140448 12 169 3.2 11.3 0.18 0.38 0.38 96 1006.2
20260506135945 12 154 3.2 8.0 0.18 0.38 0.38 96 1006.1
20260506135443 12 176 1.6 6.4 0.18 0.38 0.38 96 1006.3
20260506134938 12 157 0.0 4.8 0.13 0.36 0.36 96 1006.4
20260506134435 12 167 3.2 8.0 0.18 0.33 0.33 96 1006.4
20260506133932 12 148 8.0 17.7 0.18 0.33 0.33 96 1006.5
20260506133429 11 116 0.0 8.0 0.13 0.30 0.30 96 1006.7
20260506132926 11 84 1.6 4.8 0.13 0.30 0.30 96 1006.7
20260506132422 11 242 3.2 4.8 0.05 0.28 0.28 96 1007.0
20260506131920 11 191 1.6 6.4 0.13 0.28 0.28 96 1007.0
20260506131416 11 159 1.6 4.8 0.13 0.28 0.28 96 1007.1
20260506130914 11 125 4.8 12.9 0.13 0.25 0.25 96 1007.1
20260506130410 11 139 1.6 8.0 0.13 0.23 0.23 96 1007.3
20260506125908 11 124 4.8 4.8 0.13 0.23 0.23 96 1007.3
20260506125406 11 165 0.0 11.3 0.13 0.23 0.23 96 1007.3
20260506124904 11 140 0.0 6.4 0.13 0.20 0.20 96 1007.2
20260506124401 11 206 1.6 3.2 0.13 0.20 0.20 96 1007.2
20260506123859 11 175 1.6 4.8 0.13 0.18 0.18 96 1007.1
20260506123357 11 211 3.2 6.4 0.13 0.18 0.18 96 1007.0
20260506122854 11 166 0.0 3.2 0.05 0.15 0.15 96 1007.0
20260506122350 11 204 0.0 4.8 0.13 0.15 0.15 96 1007.1
20260506121849 11 106 0.0 4.8 0.05 0.15 0.15 96 1006.6
20260506121346 11 79 1.6 4.8 0.05 0.15 0.15 96 1006.5
20260506120842 11 181 3.2 4.8 0.05 0.15 0.15 96 1006.5
20260506120340 10 113 0.0 4.8 0.00 0.13 0.13 96 1006.4
20260506115837 10 112 1.6 3.2 0.05 0.13 0.13 96 1006.4
20260506115336 10 81 1.6 4.8 0.13 0.13 0.13 96 1006.6
20260506114833 10 113 3.2 4.8 0.05 0.13 0.13 96 1007.1
20260506114331 10 106 3.2 3.2 0.05 0.10 0.10 96 1007.3
20260506113829 10 133 1.6 3.2 0.13 0.10 0.10 96 1007.2
20260506113326 10 100 1.6 3.2 0.00 0.10 0.10 96 1007.2
20260506112823 10 50 3.2 3.2 0.05 0.10 0.10 96 1007.2
20260506112320 10 51 1.6 3.2 0.05 0.10 0.10 96 1007.3
20260506111817 10 49 3.2 4.8 0.00 0.08 0.08 96 1007.3
20260506111315 10 78 1.6 3.2 0.00 0.08 0.08 96 1007.3
20260506110813 10 47 3.2 3.2 0.00 0.08 0.08 96 1007.4
20260506110310 10 11 3.2 4.8 0.00 0.08 0.08 96 1007.5
20260506105806 10 26 3.2 3.2 0.00 0.08 0.08 96 1007.3
20260506105305 10 57 1.6 3.2 0.00 0.08 0.08 96 1007.4
20260506104801 10 60 1.6 3.2 0.05 0.08 0.08 96 1007.1
20260506104258 10 99 3.2 3.2 0.05 0.08 0.08 96 1007.1
20260506103755 10 56 0.0 1.6 0.00 0.08 0.08 96 1007.3
20260506103253 10 51 0.0 3.2 0.05 0.08 0.08 96 1007.2
20260506102750 10 38 0.0 1.6 0.05 0.08 0.08 96 1007.1
20260506102248 10 50 1.6 3.2 0.05 0.05 0.05 96 1007.1
20260506101745 10 115 1.6 3.2 0.05 0.05 0.05 96 1006.9
20260506101241 10 75 1.6 4.8 0.05 0.05 0.05 96 1006.9
20260506100739 10 47 0.0 3.2 0.05 0.05 0.05 96 1007.0
20260506100237 9 55 1.6 3.2 0.00 0.05 0.05 96 1006.7
20260506095736 9 70 1.6 3.2 0.00 0.05 0.05 96 1006.9
20260506095232 9 89 1.6 3.2 0.00 0.05 0.05 96 1006.5
20260506094729 9 60 1.6 3.2 0.05 0.05 0.05 96 1006.7
20260506094227 10 72 0.0 3.2 0.05 0.05 0.05 96 1006.9
20260506093726 10 66 0.0 4.8 0.00 0.03 0.03 96 1006.7
20260506093222 10 84 1.6 3.2 0.00 0.03 0.03 96 1006.9
20260506092720 10 69 0.0 3.2 0.00 0.03 0.03 96 1006.7
20260506092217 10 111 3.2 4.8 0.05 0.03 0.03 95 1006.9
20260506091715 9 115 3.2 4.8 0.05 0.03 0.03 95 1006.9
20260506091212 9 97 3.2 3.2 0.00 0.03 0.03 95 1007.1
20260506090710 9 76 0.0 1.6 0.05 0.03 0.03 95 1007.0
20260506090206 9 95 3.2 3.2 0.05 0.03 0.03 95 1007.1
20260506085704 9 95 1.6 3.2 0.00 0.00 0.00 94 1007.4
20260506085159 10 48 1.6 1.6 0.00 0.00 0.00 94 1007.2
20260506084656 10 88 3.2 3.2 0.05 0.00 0.00 94 1007.2
20260506084153 10 110 0.0 0.0 0.05 0.00 0.00 93 1007.4
20260506083649 10 232 1.6 3.2 0.00 0.00 0.00 93 1007.7
20260506083148 10 106 3.2 4.8 0.00 0.00 0.00 92 1007.4
20260506082644 10 152 3.2 4.8 0.00 0.00 0.00 92 1007.5
20260506082139 10 97 3.2 3.2 0.00 0.00 0.00 92 1007.4
20260506081638 10 66 0.0 4.8 0.00 0.00 0.00 92 1007.4
20260506081135 10 115 0.0 4.8 0.00 0.00 0.00 92 1007.6
20260506080633 10 89 0.0 3.2 0.00 0.00 0.00 92 1007.4
20260506080129 10 221 3.2 3.2 0.00 0.00 0.00 91 1007.3
20260506073113 10 32 0.0 1.6 0.00 0.00 0.00 91 1007.3
20260506072609 10 25 1.6 3.2 0.00 0.00 0.00 91 1007.7
20260506072108 10 66 0.0 1.6 0.00 0.00 0.00 91 1007.6
20260506071605 10 16 0.0 3.2 0.00 0.00 0.00 91 1007.6
20260506071103 10 57 1.6 3.2 0.00 0.00 0.00 91 1007.5
20260506070559 10 19 0.0 4.8 0.00 0.00 0.00 91 1007.4
20260506062034 10 73 3.2 4.8 0.00 0.00 0.00 88 1008.1
20260506061529 10 228 9.7 11.3 0.00 0.00 0.00 88 1008.1
20260506061027 10 60 3.2 3.2 0.00 0.00 0.00 88 1008.2
20260506060525 10 184 3.2 4.8 0.00 0.00 0.00 87 1008.2
20260506050954 10 126 0.0 4.8 0.00 0.00 0.00 89 1008.9
20260506050452 10 86 1.6 4.8 0.00 0.00 0.00 90 1009.2
20260506044942 10 96 1.6 4.8 0.00 0.00 0.00 90 1009.2
20260506044441 10 336 0.0 4.8 0.00 0.00 0.00 90 1009.2
20260506043937 10 89 0.0 3.2 0.00 0.00 0.00 89 1009.5
20260506043434 10 30 1.6 3.2 0.00 0.00 0.00 89 1009.5
20260506042932 10 6 0.0 3.2 0.00 0.00 0.00 90 1009.1
20260506042431 10 19 0.0 3.2 0.00 0.00 0.00 90 1009.0
20260506041929 10 86 3.2 4.8 0.00 0.00 0.00 90 1009.1
20260506041426 10 93 3.2 4.8 0.00 0.00 0.00 89
20260506040923 10 89 0.0 4.8 0.00 0.00 0.00 89
20260506040421 10 80 3.2 4.8 0.00 0.00 0.00 89
20260506035917 10 72 0.0 4.8 0.00 0.10 0.10 89
20260506035415 10 88 3.2 4.8 0.00 0.10 0.10 89
20260506034911 10 29 0.0 4.8 0.00 0.10 0.10 90
20260506034408 10 83 1.6 3.2 0.00 0.10 0.10 90
20260506033905 10 89 3.2 4.8 0.00 0.10 0.10 90
20260506033403 10 107 1.6 3.2 0.00 0.10 0.10 89
20260506032859 10 20 0.0 6.4 0.00 0.10 0.10 89
20260506032356 11 12 1.6 1.6 0.00 0.10 0.10 89
20260506031853 11 269 0.0 4.8 0.00 0.10 0.10 88
20260506031350 11 53 4.8 4.8 0.00 0.10 0.10 88
20260506030848 11 252 0.0 4.8 0.00 0.10 0.10 87
20260506030346 11 314 0.0 3.2 0.00 0.10 0.10 87
20260506025842 11 10 3.2 8.0 0.00 0.10 0.10 86
20260506025338 11 3 3.2 9.7 0.00 0.10 0.10 85
20260506024836 11 343 4.8 8.0 0.00 0.10 0.10 85
20260506024333 11 37 3.2 11.3 0.00 0.10 0.10 85
20260506023829 12 353 3.2 16.1 0.00 0.10 0.10 84
20260506023325 12 6 4.8 9.7 0.00 0.10 0.10 84
20260506022822 12 6 3.2 12.9 0.00 0.10 0.10 84
20260506022320 12 13 4.8 14.5 0.00 0.10 0.10 83
20260506021818 12 332 6.4 14.5 0.00 0.10 0.10 83
20260506021315 12 342 6.4 12.9 0.00 0.10 0.10 84
20260506020811 12 339 4.8 9.7 0.00 0.10 0.10 83
20260506020309 13 345 3.2 9.7 0.00 0.10 0.10 85
20260506015807 13 324 4.8 9.7 0.00 0.10 0.10 85
20260506015306 13 320 3.2 8.0 0.00 0.10 0.10 85
20260506014801 14 356 8.0 14.5 0.00 0.10 0.10 88 1008.4
20260506014257 14 332 3.2 4.8 0.00 0.10 0.10 88 1008.4
20260506013754 14 338 0.0 0.0 0.00 0.10 0.10 88 1008.4
20260506013251 14 313 0.0 4.8 0.00 0.10 0.10 87 1008.4
20260506012748 15 332 0.0 8.0 0.00 0.10 0.10 86 1008.4
20260506012245 15 335 3.2 9.7 0.00 0.10 0.10 86 1008.4
20260506011742 15 3 4.8 8.0 0.00 0.10 0.10 85 1008.4
20260506011238 15 42 4.8 9.7 0.00 0.10 0.10 86 1008.4
20260506010737 15 356 0.0 8.0 0.00 0.10 0.10 85 1008.4
20260506010234 15 93 3.2 8.0 0.00 0.10 0.10 85 1008.4
20260506005731 15 315 3.2 6.4 0.00 0.10 0.10 85 1008.4
20260506005228 15 318 1.6 8.0 0.00 0.10 0.10 86 1008.2
20260506004723 15 298 3.2 4.8 0.00 0.10 0.10 89 1008.4
20260506004221 15 340 1.6 4.8 0.00 0.10 0.10 91 1007.9
20260506003717 15 323 0.0 3.2 0.00 0.10 0.10 92 1008.0
20260506003214 15 8 3.2 3.2 0.00 0.10 0.10 91 1007.8
20260506002709 15 37 0.0 3.2 0.00 0.10 0.10 90 1007.9
20260506002206 15 120 1.6 3.2 0.00 0.10 0.10 91 1007.8
20260506001702 15 97 1.6 1.6 0.00 0.10 0.10 91 1007.5
20260506001200 15 37 0.0 1.6 0.00 0.10 0.10 90 1007.7
20260506000656 15 37 0.0 1.6 0.00 0.10 0.10 89 1007.7
20260506000154 15 129 0.0 1.6 0.00 0.10 0.10 87 1007.6
20260505235652 15 135 0.0 3.2 0.00 0.10 0.10 87 1007.5
20260505235149 16 92 1.6 3.2 0.00 0.10 0.10 86 1007.5
20260505234645 16 124 3.2 3.2 0.00 0.10 0.10 85 1007.5
20260505234142 16 114 1.6 4.8 0.00 0.10 0.10 86 1007.6
20260505233639 16 111 1.6 3.2 0.00 0.10 0.10 88 1007.5
20260505233137 16 32 0.0 0.0 0.00 0.10 0.10 87 1007.6
20260505232634 16 47 0.0 1.6 0.00 0.10 0.10 86 1007.7
20260505232132 16 246 0.0 3.2 0.00 0.10 0.10 85 1007.6
20260505231628 16 157 0.0 3.2 0.00 0.10 0.10 85 1007.7
20260505231127 16 134 0.0 3.2 0.00 0.10 0.10 85 1007.7
20260505230625 16 130 3.2 3.2 0.00 0.10 0.10 83 1007.4
20260505230121 16 149 0.0 3.2 0.00 0.10 0.10 83 1007.4
20260505225617 16 151 3.2 3.2 0.00 0.10 0.10 86 1007.4
20260505225114 16 124 3.2 3.2 0.00 0.10 0.10 87 1007.5
20260505224610 16 0 1.6 3.2 0.00 0.10 0.10 87 1007.7
20260505224108 16 231 0.0 4.8 0.00 0.10 0.10 84 1007.6
20260505223605 16 255 3.2 8.0 0.05 0.10 0.10 83 1007.4
20260505223101 16 254 1.6 8.0 0.13 0.10 0.10 83 1007.4
20260505222558 17 114 1.6 12.9 0.05 0.10 0.10 81 1007.3
20260505222054 17 132 3.2 8.0 0.00 0.08 0.08 76 1007.3
20260505221551 17 143 4.8 9.7 0.00 0.08 0.08 75 1007.6
20260505221047 17 176 6.4 9.7 0.00 0.08 0.08 77 1007.5
20260505220545 18 121 3.2 6.4 0.00 0.08 0.08 75 1006.7
20260505220043 18 146 0.0 3.2 0.00 0.08 0.08 75 1006.6
20260505215540 18 108 0.0 6.4 0.00 0.08 0.08 75 1007.1
20260505215038 18 160 3.2 4.8 0.00 0.08 0.08 74 1006.9
20260505214536 18 155 0.0 3.2 0.00 0.08 0.08 72 1006.7
20260505214032 18 256 4.8 8.0 0.00 0.08 0.08 72 1006.9
20260505213530 18 105 0.0 8.0 0.00 0.08 0.08 70 1006.4
20260505213026 18 143 3.2 4.8 0.00 0.08 0.08 72 1006.5
20260505212523 19 186 3.2 8.0 0.00 0.08 0.08 72 1006.6
20260505212020 19 254 3.2 4.8 0.00 0.08 0.08 71 1006.5